星链-35879(STARLINK-35879)

导读

STARLINK-35879是美国SpaceX公司星链星座的成员卫星,于2025年12月8日,由猎鹰9号火箭从肯尼迪航天中心发射入轨。本次任务火箭一级完成第32次飞行,回收成功,卫星约1小时04分钟后顺利部署。它运行在近地轨道,属于星链第二代卫星,配备激光星间链路与相控阵天线,旨在为全球尤其偏远地区提供高速低延迟宽带互联网服务,助力星链实现全球覆盖。

Basic Information
目录编号:
66960
目录名称:
STARLINK-35879
国际标识:
2025-288B
轨道中心:
EARTH
卫星名称:
星链-35879
卫星全名:
星链-35879(STARLINK-35879)
卫星状态:
在轨 (已飞行278 天)
发射日期:
2025-12-08 UTC
国别 :
美国 (US)
星等 :
--
This satellite is enrolled in the Space Conjunction Data Service (SCDS) and the current flight risk assessment level is: No High Risk
Orbit Information
数据来源 国际轨道数据 AOE轨道数据
星历时间 2026-09-12T02:15:16+0800
8小时前
查看轨道信息
2026-09-05T12:00:00+0800
6天前
查看轨道信息
半长轴 6861.144km 6861.19km
偏心率 0.0001628 0.0001695
轨道倾角 43.006° 43.007°
近地点辐角 266.355° 289.000°
升交点赤经 52.703° 89.950°
平近点角 93.711° 126.635°
近地点 481.89km 481.89km
远地点 484.124km 484.216km
周期 94.266分钟 94.267分钟
每日圈数 15.275941 15.275787
Detailed Information
固有亮度:
5
最大亮度:
2.5
卫星平台:
Starlink V1.0
覆盖范围:
全球
运营商:
太空探索技术公司
运营商所在国:
美国
制造商(研发单位):
太空探索技术公司
制造商所在国:
美国
使用方式:
暂无
Satellite Introduction
Starlink 计划是 SpaceX 推出的全球卫星互联网项目,通过发射低轨道卫星,为全球尤其是偏远地区提供高速、低延迟的互联网服务。自 2019 年起,Starlink 已部署数千颗卫星,旨在缩小全球数字鸿沟,推动互联网普及。该项目还为军事、航空等行业提供通信支持,带来广泛经济效益。
2D Orbit Map
3D Orbit Map
Orbit Altitude Analysis Chart
Orbit Inclination Analysis Chart
Orbit Comprehensive Analysis Chart
View Comprehensive Chart
Conjunction Data List
Event ID Objects TCA Miss Dist (km) Collision Risk Probability Collision Risk Index (CRI) Action
CDM_260914-080605-609606-696021
2026-09-14T
08:06:58+0000
0.491 km
远距离
1.666857E-4 高风险 0.79
CDM_260909-042805-823206-696021
2026-09-09T
04:28:59+0000
0.576 km
远距离
9.821172E-5 中风险 0.75
CDM_260912-061405-823206-696021
2026-09-12T
06:14:19+0000
0.704 km
远距离
5.500815E-5 中风险 0.7
CDM_260913-134605-957806-696021
2026-09-13T
13:46:30+0000
0.531 km
远距离
4.433098E-5 中风险 0.68
CDM_260913-145205-860306-696021
2026-09-13T
14:52:27+0000
0.845 km
远距离
3.616338E-5 中风险 0.66
CDM_260910-180805-823206-696021
2026-09-10T
18:08:45+0000
0.864 km
远距离
2.86719E-5 中风险 0.64
CDM_260913-161605-708506-696021
2026-09-13T
16:16:29+0000
1.187 km
极远距离
8.077476E-6 低风险 0.53
CDM_260914-005405-708506-696021
2026-09-14T
00:54:20+0000
1.280 km
极远距离
6.24294E-6 低风险 0.51
CDM_260913-162605-860306-696021
2026-09-13T
16:26:36+0000
1.421 km
极远距离
6.104953E-6 低风险 0.51
CDM_260912-184104-282706-696021
OBJECT C (42827)
2026-09-12T
18:41:55+0000
1.419 km
极远距离
5.042462E-6 低风险 0.49
Miss Distance Evolution Trend with All Objects
Collision Probability Evolution Trend with All Objects